This is the latest recevied weather packets stored in our database for station/object WE0DX-1. If no packets are shown the sender has not sent any weather packets the latest 10 day(s).
| Time | Temp. | Humidity | Pressure | Rain* | Wind** | Luminosity | Snow |
|---|---|---|---|---|---|---|---|
| 1777480374 | 13.33° C | 61% | 1020.4 hPa | 0 mm | - | 864 W/m² | - |
| 1777480070 | 13.89° C | 61% | 1020.7 hPa | 0 mm | - | 842 W/m² | - |
| 1777479766 | 13.33° C | 63% | 1020.8 hPa | 0 mm | - | 770 W/m² | - |
| 1777479465 | 13.33° C | 61% | 1020.6 hPa | 0 mm | - | 555 W/m² | - |
| 1777479161 | 13.33° C | 63% | 1020.4 hPa | 0 mm | - | 576 W/m² | - |
| 1777478858 | 12.78° C | 63% | 1020.3 hPa | 0 mm | - | 739 W/m² | - |
| 1777478554 | 13.33° C | 63% | 1020.4 hPa | 0 mm | - | 640 W/m² | - |
| 1777478252 | 12.78° C | 63% | 1020.1 hPa | 0 mm | - | 663 W/m² | - |
| 1777477036 | 12.22° C | 69% | 1020.5 hPa | 0 mm | - | 703 W/m² | - |
| 1777475823 | 11.67° C | 69% | 1020.3 hPa | 0 mm | - | 617 W/m² | - |
| 1777474607 | 11.11° C | 72% | 1020.3 hPa | 0 mm | - | 513 W/m² | - |
| 1777473394 | 11.67° C | 75% | 1020.4 hPa | 0 mm | - | 410 W/m² | - |
| 1777471881 | 10.56° C | 78% | 1020.6 hPa | 0 mm | - | 302 W/m² | - |
| 1777471578 | 10.56° C | 79% | 1020.6 hPa | 0 mm | - | 287 W/m² | - |
| 1777470669 | 9.44° C | 81% | 1020.6 hPa | 0 mm | - | 121 W/m² | - |
| 1777470364 | 9.44° C | 82% | 1020.9 hPa | 0 mm | - | 165 W/m² | - |
| 1777469757 | 8.89° C | 83% | 1020.5 hPa | 0 mm | - | 79 W/m² | - |
| 1777467323 | 7.78° C | 87% | 1020.4 hPa | 0 mm | - | 55 W/m² | - |
| 1777466717 | 7.78° C | 88% | 1020.5 hPa | 0 mm | - | 46 W/m² | - |
| 1777465807 | 7.22° C | 89% | 1020.3 hPa | 0 mm | - | 45 W/m² | - |
| 1777465502 | 7.22° C | 89% | 1020 hPa | 0 mm | - | 34 W/m² | - |
| 1777465201 | 7.22° C | 89% | 1020.1 hPa | 0 mm | - | 24 W/m² | - |
| 1777464897 | 7.22° C | 89% | 1020 hPa | 0 mm | - | 31 W/m² | - |
| 1777464592 | 7.22° C | 89% | 1019.4 hPa | 0 mm | - | 29 W/m² | - |
| 1777463984 | 6.67° C | 90% | 1019.5 hPa | 0 mm | - | 23 W/m² | - |
* Rain latest hour (hover to see other rain measurements)
** Current wind speed in m/s (hover to see current wind gust speed)